This demonstration page uses our WeatherBlox Daily Observations layout. Learn more.

Left ArrowRight Arrow

39.01783, -85.05884

Hourly Observations for July 15, 2021

Temp ( °F °C ) Dew Point ( °F °C ) Humidity (%) Winds ( mph kmh ) Pressure ( in mb ) Visibility ( mi km ) Precip ( " mm )
12:52 am 00:52 Mostly Cloudy 74 23.3 68 20 82 82 SSW 6 9 30.13 1020 10 16 0.00 0.00
1:52 am 01:52 Partly Cloudy 73 22.8 68 20 84 84 S 5 7 30.11 1020 10 16 0.00 0.00
2:52 am 02:52 Mostly Cloudy 73 22.8 68 20 84 84 SSW 7 11 30.11 1020 10 16 0.00 0.00
3:52 am 03:52 Mostly Cloudy 72 22.2 68 20 87 87 SSW 6 9 30.11 1020 10 16 0.00 0.00
4:52 am 04:52 Partly Cloudy 71 21.7 67 19.4 87 87 S 7 11 30.09 1019 10 16 0.00 0.00
5:52 am 05:52 Mostly Clear 70 21.1 67 19.4 90 90 S 6 9 30.10 1019 10 16 0.00 0.00
6:52 am 06:52 Sunny 70 21.1 66 18.9 87 87 S 8 13 30.10 1019 8 13 0.00 0.00
7:52 am 07:52 Sunny 72 22.2 67 19.4 84 84 S 8 13 30.10 1019 10 16 0.00 0.00
8:52 am 08:52 Partly Cloudy 74 23.3 68 20 82 82 SSW 8 13 30.11 1020 10 16 0.00 0.00
9:52 am 09:52 Partly Cloudy 77 25 68 20 74 74 SSW 9 15 30.11 1020 10 16 0.00 0.00
10:52 am 10:52 Mostly Sunny 80 26.7 69 20.6 69 69 SSW 13 20 30.09 1019 10 16 0.00 0.00
11:52 am 11:52 Partly Cloudy 83 28.3 71 21.7 67 67 SW 9 15 30.09 1019 10 16 0.00 0.00
12:52 pm 12:52 Partly Cloudy 85 29.4 71 21.7 63 63 WSW 9 15 30.08 1019 10 16 0.00 0.00
1:52 pm 13:52 Mostly Cloudy 86 30 70 21.1 59 59 SW 7 11 30.07 1018 10 16 0.00 0.00
2:52 pm 14:52 Partly Cloudy 87 30.6 70 21.1 57 57 SSW 9 15 30.05 1018 10 16 0.00 0.00
3:52 pm 15:52 Mostly Sunny 87 30.6 70 21.1 57 57 SW 10 17 30.02 1017 10 16 0.00 0.00
4:52 pm 16:52 Partly Cloudy 88 31.1 68 20 52 52 WSW 12 19 30.00 1016 10 16 0.00 0.00
5:52 pm 17:52 Mostly Sunny 87 30.6 67 19.4 51 51 WSW 14 22 29.99 1016 10 16 0.00 0.00
6:52 pm 18:52 Partly Cloudy 86 30 68 20 55 55 SW 8 13 29.99 1016 10 16 0.00 0.00
7:52 pm 19:52 Partly Cloudy 85 29.4 67 19.4 55 55 WSW 6 9 29.98 1015 10 16 0.00 0.00
8:52 pm 20:52 Mostly Cloudy 81 27.2 68 20 65 65 SSW 5 7 29.99 1016 10 16 0.00 0.00
9:52 pm 21:52 Mostly Cloudy 79 26.1 71 21.7 77 77 S 8 13 30.01 1016 10 16 0.00 0.00
10:52 pm 22:52 Mostly Cloudy 78 25.6 71 21.7 79 79 S 8 13 30.02 1017 10 16 0.00 0.00
11:52 pm 23:52 Mostly Cloudy 77 25 70 21.1 79 79 S 10 17 30.01 1016 10 16 0.00 0.00

Powered by AerisWeather